Year,Month,Day,Hour,Minute,Value (Times are PST for temperature in C)
2007,07,15,00,00,16.30
2007,07,15,00,01,16.30
2007,07,15,00,02,16.30
2007,07,15,00,03,16.30
2007,07,15,00,04,16.30
2007,07,15,00,05,16.30
2007,07,15,00,06,16.30
2007,07,15,00,07,16.30
2007,07,15,00,08,16.30
2007,07,15,00,09,16.30
2007,07,15,00,10,16.30
2007,07,15,00,11,16.30
2007,07,15,00,12,16.30
2007,07,15,00,13,16.30
2007,07,15,00,14,16.30
2007,07,15,00,15,16.30
2007,07,15,00,16,16.30
2007,07,15,00,17,16.30
2007,07,15,00,18,16.30
2007,07,15,00,19,16.30
2007,07,15,00,20,16.30
2007,07,15,00,21,16.30
2007,07,15,00,22,16.30
2007,07,15,00,23,16.30
2007,07,15,00,24,16.30
2007,07,15,00,25,16.30
2007,07,15,00,26,16.30
2007,07,15,00,27,16.30
2007,07,15,00,28,16.30
2007,07,15,00,29,16.30
2007,07,15,00,30,16.30
2007,07,15,00,31,16.30
2007,07,15,00,32,16.40
2007,07,15,00,33,16.40
2007,07,15,00,34,16.40
2007,07,15,00,35,16.40
2007,07,15,00,36,16.40
2007,07,15,00,37,16.50
2007,07,15,00,38,16.50
2007,07,15,00,39,16.60
2007,07,15,00,40,16.60
2007,07,15,00,41,16.60
2007,07,15,00,42,16.60
2007,07,15,00,43,16.60
2007,07,15,00,44,16.60
2007,07,15,00,45,16.60
2007,07,15,00,46,16.60
2007,07,15,00,47,16.60
2007,07,15,00,48,16.60
2007,07,15,00,49,16.70
2007,07,15,00,50,16.70
2007,07,15,00,51,16.70
2007,07,15,00,52,16.70
2007,07,15,00,53,16.70
2007,07,15,00,54,16.70
2007,07,15,00,55,16.70
2007,07,15,00,56,16.70
2007,07,15,00,57,16.70
2007,07,15,00,58,16.70
2007,07,15,00,59,16.70
2007,07,15,01,00,16.70
2007,07,15,01,01,16.80
2007,07,15,01,02,16.80
2007,07,15,01,03,16.80
2007,07,15,01,04,16.80
2007,07,15,01,05,16.80
2007,07,15,01,06,16.80
2007,07,15,01,07,16.80
2007,07,15,01,08,16.80
2007,07,15,01,09,16.90
2007,07,15,01,10,16.90
2007,07,15,01,11,16.90
2007,07,15,01,12,16.90
2007,07,15,01,13,16.90
2007,07,15,01,14,16.90
2007,07,15,01,15,17.00
2007,07,15,01,16,17.10
2007,07,15,01,17,17.10
2007,07,15,01,18,17.20
2007,07,15,01,19,17.20
2007,07,15,01,20,17.20
2007,07,15,01,21,17.30
2007,07,15,01,22,17.30
2007,07,15,01,23,17.30
2007,07,15,01,24,17.30
2007,07,15,01,25,17.30
2007,07,15,01,26,17.30
2007,07,15,01,27,17.30
2007,07,15,01,28,17.30
2007,07,15,01,29,17.30
2007,07,15,01,30,17.30
2007,07,15,01,31,17.30
2007,07,15,01,32,17.30
2007,07,15,01,33,17.30
2007,07,15,01,34,17.30
2007,07,15,01,35,17.30
2007,07,15,01,36,17.30
2007,07,15,01,37,17.40
2007,07,15,01,38,17.40
2007,07,15,01,39,17.50
2007,07,15,01,40,17.50
2007,07,15,01,41,17.60
2007,07,15,01,42,17.60
2007,07,15,01,43,17.60
2007,07,15,01,44,17.60
2007,07,15,01,45,17.60
2007,07,15,01,46,17.60
2007,07,15,01,47,17.60
2007,07,15,01,48,17.60
2007,07,15,01,49,17.60
2007,07,15,01,50,17.60
2007,07,15,01,51,17.60
2007,07,15,01,52,17.60
2007,07,15,01,53,17.60
2007,07,15,01,54,17.60
2007,07,15,01,55,17.60
2007,07,15,01,56,17.60
2007,07,15,01,57,17.60
2007,07,15,01,58,17.60
2007,07,15,01,59,17.60
2007,07,15,02,00,17.60
2007,07,15,02,01,17.60
2007,07,15,02,02,17.60
2007,07,15,02,03,17.60
2007,07,15,02,04,17.60
2007,07,15,02,05,17.60
2007,07,15,02,06,17.60
2007,07,15,02,07,17.70
2007,07,15,02,08,17.70
2007,07,15,02,09,17.70
2007,07,15,02,10,17.60
2007,07,15,02,11,17.60
2007,07,15,02,12,17.60
2007,07,15,02,13,17.60
2007,07,15,02,14,17.60
2007,07,15,02,15,17.60
2007,07,15,02,16,17.60
2007,07,15,02,17,17.60
2007,07,15,02,18,17.60
2007,07,15,02,19,17.60
2007,07,15,02,20,17.60
2007,07,15,02,21,17.60
2007,07,15,02,22,17.60
2007,07,15,02,23,17.60
2007,07,15,02,24,17.60
2007,07,15,02,25,17.70
2007,07,15,02,26,17.70
2007,07,15,02,27,17.70
2007,07,15,02,28,17.70
2007,07,15,02,29,17.80
2007,07,15,02,30,17.80
2007,07,15,02,31,17.80
2007,07,15,02,32,17.80
2007,07,15,02,33,17.80
2007,07,15,02,34,17.80
2007,07,15,02,35,17.80
2007,07,15,02,36,17.90
2007,07,15,02,37,17.90
2007,07,15,02,38,17.90
2007,07,15,02,39,17.90
2007,07,15,02,40,17.90
2007,07,15,02,41,17.90
2007,07,15,02,42,17.80
2007,07,15,02,43,17.80
2007,07,15,02,44,17.80
2007,07,15,02,45,17.70
2007,07,15,02,46,17.70
2007,07,15,02,47,17.70
2007,07,15,02,48,17.60
2007,07,15,02,49,17.60
2007,07,15,02,50,17.60
2007,07,15,02,51,17.60
2007,07,15,02,52,17.60
2007,07,15,02,53,17.60
2007,07,15,02,54,17.50
2007,07,15,02,55,17.50
2007,07,15,02,56,17.50
2007,07,15,02,57,17.50
2007,07,15,02,58,17.40
2007,07,15,02,59,17.40
2007,07,15,03,00,17.40
2007,07,15,03,01,17.40
2007,07,15,03,02,17.40
2007,07,15,03,03,17.40
2007,07,15,03,04,17.40
2007,07,15,03,05,17.40
2007,07,15,03,06,17.40
2007,07,15,03,07,17.40
2007,07,15,03,08,17.30
2007,07,15,03,09,17.30
2007,07,15,03,10,17.30
2007,07,15,03,11,17.30
2007,07,15,03,12,17.30
2007,07,15,03,13,17.30
2007,07,15,03,14,17.30
2007,07,15,03,15,17.30
2007,07,15,03,16,17.30
2007,07,15,03,17,17.30
2007,07,15,03,18,17.20
2007,07,15,03,19,17.20
2007,07,15,03,20,17.20
2007,07,15,03,21,17.20
2007,07,15,03,22,17.20
2007,07,15,03,23,17.20
2007,07,15,03,24,17.20
2007,07,15,03,25,17.20
2007,07,15,03,26,17.20
2007,07,15,03,27,17.20
2007,07,15,03,28,17.20
2007,07,15,03,29,17.20
2007,07,15,03,30,17.20
2007,07,15,03,31,17.20
2007,07,15,03,32,17.20
2007,07,15,03,33,17.10
2007,07,15,03,34,17.10
2007,07,15,03,35,17.10
2007,07,15,03,36,17.10
2007,07,15,03,37,17.10
2007,07,15,03,38,17.10
2007,07,15,03,39,17.20
2007,07,15,03,40,17.20
2007,07,15,03,41,17.20
2007,07,15,03,42,17.20
2007,07,15,03,43,17.20
2007,07,15,03,44,17.20
2007,07,15,03,45,17.10
2007,07,15,03,46,17.10
2007,07,15,03,47,17.10
2007,07,15,03,48,17.10
2007,07,15,03,49,17.10
2007,07,15,03,50,17.10
2007,07,15,03,51,17.10
2007,07,15,03,52,17.10
2007,07,15,03,53,17.10
2007,07,15,03,54,17.10
2007,07,15,03,55,17.00
2007,07,15,03,56,17.00
2007,07,15,03,57,17.00
2007,07,15,03,58,17.00
2007,07,15,03,59,16.90
2007,07,15,04,00,16.90
2007,07,15,04,01,16.90
2007,07,15,04,02,16.90
2007,07,15,04,03,16.90
2007,07,15,04,04,16.90
2007,07,15,04,05,16.90
2007,07,15,04,06,16.90
2007,07,15,04,07,16.90
2007,07,15,04,08,16.80
2007,07,15,04,09,16.80
2007,07,15,04,10,16.80
2007,07,15,04,11,16.80
2007,07,15,04,12,16.80
2007,07,15,04,13,16.80
2007,07,15,04,14,16.80
2007,07,15,04,15,16.80
2007,07,15,04,16,16.80
2007,07,15,04,17,16.70
2007,07,15,04,18,16.70
2007,07,15,04,19,16.70
2007,07,15,04,20,16.70
2007,07,15,04,21,16.70
2007,07,15,04,22,16.70
2007,07,15,04,23,16.70
2007,07,15,04,24,16.70
2007,07,15,04,25,16.70
2007,07,15,04,26,16.70
2007,07,15,04,27,16.70
2007,07,15,04,28,16.70
2007,07,15,04,29,16.70
2007,07,15,04,30,16.70
2007,07,15,04,31,16.70
2007,07,15,04,32,16.80
2007,07,15,04,33,16.80
2007,07,15,04,34,16.80
2007,07,15,04,35,16.90
2007,07,15,04,36,16.90
2007,07,15,04,37,16.90
2007,07,15,04,38,16.90
2007,07,15,04,39,16.90
2007,07,15,04,40,17.00
2007,07,15,04,41,17.00
2007,07,15,04,42,17.00
2007,07,15,04,43,17.10
2007,07,15,04,44,17.10
2007,07,15,04,45,17.10
2007,07,15,04,46,17.10
2007,07,15,04,47,17.20
2007,07,15,04,48,17.20
2007,07,15,04,49,17.20
2007,07,15,04,50,17.20
2007,07,15,04,51,17.20
2007,07,15,04,52,17.20
2007,07,15,04,53,17.20
2007,07,15,04,54,17.20
2007,07,15,04,55,17.20
2007,07,15,04,56,17.20
2007,07,15,04,57,17.20
2007,07,15,04,58,17.20
2007,07,15,04,59,17.20
2007,07,15,05,00,17.30
2007,07,15,05,01,17.30
2007,07,15,05,02,17.30
2007,07,15,05,03,17.40
2007,07,15,05,04,17.40
2007,07,15,05,05,17.40
2007,07,15,05,06,17.40
2007,07,15,05,07,17.40
2007,07,15,05,08,17.30
2007,07,15,05,09,17.30
2007,07,15,05,10,17.30
2007,07,15,05,11,17.30
2007,07,15,05,12,17.30
2007,07,15,05,13,17.30
2007,07,15,05,14,17.30
2007,07,15,05,15,17.30
2007,07,15,05,16,17.30
2007,07,15,05,17,17.30
2007,07,15,05,18,17.30
2007,07,15,05,19,17.30
2007,07,15,05,20,17.20
2007,07,15,05,21,17.20
2007,07,15,05,22,17.20
2007,07,15,05,23,17.20
2007,07,15,05,24,17.20
2007,07,15,05,25,17.20
2007,07,15,05,26,17.20
2007,07,15,05,27,17.10
2007,07,15,05,28,17.10
2007,07,15,05,29,17.10
2007,07,15,05,30,17.10
2007,07,15,05,31,17.10
2007,07,15,05,32,17.10
2007,07,15,05,33,17.10
2007,07,15,05,34,17.10
2007,07,15,05,35,17.10
2007,07,15,05,36,17.10
2007,07,15,05,37,17.10
2007,07,15,05,38,17.20
2007,07,15,05,39,17.20
2007,07,15,05,40,17.20
2007,07,15,05,41,17.20
2007,07,15,05,42,17.20
2007,07,15,05,43,17.20
2007,07,15,05,44,17.20
2007,07,15,05,45,17.20
2007,07,15,05,46,17.20
2007,07,15,05,47,17.20
2007,07,15,05,48,17.20
2007,07,15,05,49,17.20
2007,07,15,05,50,17.20
2007,07,15,05,51,17.20
2007,07,15,05,52,17.20
2007,07,15,05,53,17.20
2007,07,15,05,54,17.20
2007,07,15,05,55,17.20
2007,07,15,05,56,17.20
2007,07,15,05,57,17.30
2007,07,15,05,58,17.30
2007,07,15,05,59,17.40
2007,07,15,06,00,17.40
2007,07,15,06,01,17.40
2007,07,15,06,02,17.40
2007,07,15,06,03,17.40
2007,07,15,06,04,17.40
2007,07,15,06,05,17.40
2007,07,15,06,06,17.40
2007,07,15,06,07,17.30
2007,07,15,06,08,17.30
2007,07,15,06,09,17.30
2007,07,15,06,10,17.20
2007,07,15,06,11,17.20
2007,07,15,06,12,17.20
2007,07,15,06,13,17.20
2007,07,15,06,14,17.20
2007,07,15,06,15,17.20
2007,07,15,06,16,17.20
2007,07,15,06,17,17.20
2007,07,15,06,18,17.20
2007,07,15,06,19,17.30
2007,07,15,06,20,17.30
2007,07,15,06,21,17.30
2007,07,15,06,22,17.30
2007,07,15,06,23,17.30
2007,07,15,06,24,17.30
2007,07,15,06,25,17.30
2007,07,15,06,26,17.40
2007,07,15,06,27,17.40
2007,07,15,06,28,17.40
2007,07,15,06,29,17.40
2007,07,15,06,30,17.40
2007,07,15,06,31,17.50
2007,07,15,06,32,17.50
2007,07,15,06,33,17.60
2007,07,15,06,34,17.60
2007,07,15,06,35,17.60
2007,07,15,06,36,17.50
2007,07,15,06,37,17.50
2007,07,15,06,38,17.50
2007,07,15,06,39,17.50
2007,07,15,06,40,17.50
2007,07,15,06,41,17.50
2007,07,15,06,42,17.40
2007,07,15,06,43,17.40
2007,07,15,06,44,17.40
2007,07,15,06,45,17.40
2007,07,15,06,46,17.40
2007,07,15,06,47,17.40
2007,07,15,06,48,17.40
2007,07,15,06,49,17.40
2007,07,15,06,50,17.40
2007,07,15,06,51,17.40
2007,07,15,06,52,17.40
2007,07,15,06,53,17.40
2007,07,15,06,54,17.50
2007,07,15,06,55,17.50
2007,07,15,06,56,17.50
2007,07,15,06,57,17.60
2007,07,15,06,58,17.60
2007,07,15,06,59,17.60
2007,07,15,07,00,17.60
2007,07,15,07,01,17.60
2007,07,15,07,02,17.60
2007,07,15,07,03,17.70
2007,07,15,07,04,17.70
2007,07,15,07,05,17.70
2007,07,15,07,06,17.70
2007,07,15,07,07,17.80
2007,07,15,07,08,17.80
2007,07,15,07,09,17.80
2007,07,15,07,10,17.80
2007,07,15,07,11,17.80
2007,07,15,07,12,17.80
2007,07,15,07,13,17.80
2007,07,15,07,14,17.80
2007,07,15,07,15,17.80
2007,07,15,07,16,17.80
2007,07,15,07,17,17.80
2007,07,15,07,18,17.80
2007,07,15,07,19,17.80
2007,07,15,07,20,17.90
2007,07,15,07,21,17.90
2007,07,15,07,22,17.90
2007,07,15,07,23,18.00
2007,07,15,07,24,18.00
2007,07,15,07,25,18.10
2007,07,15,07,26,18.20
2007,07,15,07,27,18.20
2007,07,15,07,28,18.30
2007,07,15,07,29,18.30
2007,07,15,07,30,18.40
2007,07,15,07,31,18.50
2007,07,15,07,32,18.70
2007,07,15,07,33,18.80
2007,07,15,07,34,18.90
2007,07,15,07,35,19.10
2007,07,15,07,36,19.30
2007,07,15,07,37,19.50
2007,07,15,07,38,19.70
2007,07,15,07,39,19.80
2007,07,15,07,40,20.00
2007,07,15,07,41,20.10
2007,07,15,07,42,20.20
2007,07,15,07,43,20.30
2007,07,15,07,44,20.30
2007,07,15,07,45,20.40
2007,07,15,07,46,20.40
2007,07,15,07,47,20.50
2007,07,15,07,48,20.60
2007,07,15,07,49,20.60
2007,07,15,07,50,20.60
2007,07,15,07,51,20.60
2007,07,15,07,52,20.60
2007,07,15,07,53,20.70
2007,07,15,07,54,20.60
2007,07,15,07,55,20.70
2007,07,15,07,56,20.70
2007,07,15,07,57,20.70
2007,07,15,07,58,20.60
2007,07,15,07,59,20.70
2007,07,15,08,00,20.70
2007,07,15,08,01,20.70
2007,07,15,08,02,20.70
2007,07,15,08,03,20.70
2007,07,15,08,04,20.70
2007,07,15,08,05,20.70
2007,07,15,08,06,20.70
2007,07,15,08,07,20.70
2007,07,15,08,08,20.70
2007,07,15,08,09,20.70
2007,07,15,08,10,20.70
2007,07,15,08,11,20.70
2007,07,15,08,12,20.70
2007,07,15,08,13,20.70
2007,07,15,08,14,20.70
2007,07,15,08,15,20.70
2007,07,15,08,16,20.70
2007,07,15,08,17,20.70
2007,07,15,08,18,20.70
2007,07,15,08,19,20.80
2007,07,15,08,20,20.80
2007,07,15,08,21,20.80
2007,07,15,08,22,20.90
2007,07,15,08,23,21.00
2007,07,15,08,24,21.10
2007,07,15,08,25,21.10
2007,07,15,08,26,21.20
2007,07,15,08,27,21.20
2007,07,15,08,28,21.30
2007,07,15,08,29,21.30
2007,07,15,08,30,21.30
2007,07,15,08,31,21.40
2007,07,15,08,32,21.40
2007,07,15,08,33,21.40
2007,07,15,08,34,21.50
2007,07,15,08,35,21.50
2007,07,15,08,36,21.60
2007,07,15,08,37,21.60
2007,07,15,08,38,21.60
2007,07,15,08,39,21.70
2007,07,15,08,40,21.80
2007,07,15,08,41,21.80
2007,07,15,08,42,21.80
2007,07,15,08,43,21.80
2007,07,15,08,44,21.90
2007,07,15,08,45,21.90
2007,07,15,08,46,21.90
2007,07,15,08,47,22.00
2007,07,15,08,48,22.10
2007,07,15,08,49,22.10
2007,07,15,08,50,22.10
2007,07,15,08,51,22.20
2007,07,15,08,52,22.20
2007,07,15,08,53,22.30
2007,07,15,08,54,22.30
2007,07,15,08,55,22.30
2007,07,15,08,56,22.40
2007,07,15,08,57,22.40
2007,07,15,08,58,22.40
2007,07,15,08,59,22.40
2007,07,15,09,00,22.40
2007,07,15,09,01,22.40
2007,07,15,09,02,22.40
2007,07,15,09,03,22.40
2007,07,15,09,04,22.40
2007,07,15,09,05,22.40
2007,07,15,09,06,22.40
2007,07,15,09,07,22.50
2007,07,15,09,08,22.60
2007,07,15,09,09,22.60
2007,07,15,09,10,22.70
2007,07,15,09,11,22.60
2007,07,15,09,12,22.60
2007,07,15,09,13,22.50
2007,07,15,09,14,22.50
2007,07,15,09,15,22.50
2007,07,15,09,16,22.50
2007,07,15,09,17,22.50
2007,07,15,09,18,22.50
2007,07,15,09,19,22.50
2007,07,15,09,20,22.50
2007,07,15,09,21,22.50
2007,07,15,09,22,22.50
2007,07,15,09,23,22.50
2007,07,15,09,24,22.50
2007,07,15,09,25,22.60
2007,07,15,09,26,22.60
2007,07,15,09,27,22.60
2007,07,15,09,28,22.60
2007,07,15,09,29,22.60
2007,07,15,09,30,22.60
2007,07,15,09,31,22.60
2007,07,15,09,32,22.50
2007,07,15,09,33,22.50
2007,07,15,09,34,22.60
2007,07,15,09,35,22.60
2007,07,15,09,36,22.60
2007,07,15,09,37,22.60
2007,07,15,09,38,22.60
2007,07,15,09,39,22.70
2007,07,15,09,40,22.70
2007,07,15,09,41,22.70
2007,07,15,09,42,22.70
2007,07,15,09,43,22.80
2007,07,15,09,44,22.90
2007,07,15,09,45,23.00
2007,07,15,09,46,23.10
2007,07,15,09,47,23.20
2007,07,15,09,48,23.20
2007,07,15,09,49,23.00
2007,07,15,09,50,22.40
2007,07,15,09,51,21.80
2007,07,15,09,52,21.40
2007,07,15,09,53,21.10
2007,07,15,09,54,20.80
2007,07,15,09,55,20.50
2007,07,15,09,56,20.30
2007,07,15,09,57,20.00
2007,07,15,09,58,19.60
2007,07,15,09,59,19.30
2007,07,15,10,00,19.10
2007,07,15,10,01,18.90
2007,07,15,10,02,18.80
2007,07,15,10,03,18.80
2007,07,15,10,04,18.80
2007,07,15,10,05,18.70
2007,07,15,10,06,18.70
2007,07,15,10,07,18.60
2007,07,15,10,08,18.50
2007,07,15,10,09,18.40
2007,07,15,10,10,18.30
2007,07,15,10,11,18.30
2007,07,15,10,12,18.30
2007,07,15,10,13,18.30
2007,07,15,10,14,18.30
2007,07,15,10,15,18.20
2007,07,15,10,16,18.20
2007,07,15,10,17,18.20
2007,07,15,10,18,18.10
2007,07,15,10,19,18.00
2007,07,15,10,20,17.80
2007,07,15,10,21,17.70
2007,07,15,10,22,17.40
2007,07,15,10,23,17.20
2007,07,15,10,24,17.00
2007,07,15,10,25,16.90
2007,07,15,10,26,16.70
2007,07,15,10,27,16.70
2007,07,15,10,28,16.70
2007,07,15,10,29,16.70
2007,07,15,10,30,16.70
2007,07,15,10,31,16.80
2007,07,15,10,32,16.80
2007,07,15,10,33,16.80
2007,07,15,10,34,16.90
2007,07,15,10,35,16.90
2007,07,15,10,36,16.90
2007,07,15,10,37,16.90
2007,07,15,10,38,16.90
2007,07,15,10,39,17.00
2007,07,15,10,40,17.00
2007,07,15,10,41,17.20
2007,07,15,10,42,17.30
2007,07,15,10,43,17.40
2007,07,15,10,44,17.50
2007,07,15,10,45,17.60
2007,07,15,10,46,17.70
2007,07,15,10,47,17.80
2007,07,15,10,48,18.00
2007,07,15,10,49,18.20
2007,07,15,10,50,18.50
2007,07,15,10,51,18.70
2007,07,15,10,52,19.00
2007,07,15,10,53,19.10
2007,07,15,10,54,19.00
2007,07,15,10,55,18.90
2007,07,15,10,56,18.90
2007,07,15,10,57,18.90
2007,07,15,10,58,18.90
2007,07,15,10,59,18.80
2007,07,15,11,00,18.60
2007,07,15,11,01,18.30
2007,07,15,11,02,18.00
2007,07,15,11,03,17.80
2007,07,15,11,04,17.70
2007,07,15,11,05,17.60
2007,07,15,11,06,17.50
2007,07,15,11,07,17.40
2007,07,15,11,08,17.30
2007,07,15,11,09,17.20
2007,07,15,11,10,17.10
2007,07,15,11,11,17.10
2007,07,15,11,12,17.10
2007,07,15,11,13,17.20
2007,07,15,11,14,17.30
2007,07,15,11,15,17.40
2007,07,15,11,16,17.40
2007,07,15,11,17,17.20
2007,07,15,11,18,17.00
2007,07,15,11,19,16.90
2007,07,15,11,20,16.90
2007,07,15,11,21,16.90
2007,07,15,11,22,17.00
2007,07,15,11,23,17.10
2007,07,15,11,24,17.30
2007,07,15,11,25,17.40
2007,07,15,11,26,17.50
2007,07,15,11,27,17.50
2007,07,15,11,28,17.50
2007,07,15,11,29,17.40
2007,07,15,11,30,17.40
2007,07,15,11,31,17.50
2007,07,15,11,32,17.40
2007,07,15,11,33,17.40
2007,07,15,11,34,17.30
2007,07,15,11,35,17.30
2007,07,15,11,36,17.20
2007,07,15,11,37,17.20
2007,07,15,11,38,17.20
2007,07,15,11,39,17.20
2007,07,15,11,40,17.30
2007,07,15,11,41,17.30
2007,07,15,11,42,17.40
2007,07,15,11,43,17.50
2007,07,15,11,44,17.60
2007,07,15,11,45,17.70
2007,07,15,11,46,17.80
2007,07,15,11,47,17.80
2007,07,15,11,48,17.80
2007,07,15,11,49,17.90
2007,07,15,11,50,18.00
2007,07,15,11,51,18.00
2007,07,15,11,52,18.10
2007,07,15,11,53,18.10
2007,07,15,11,54,18.20
2007,07,15,11,55,18.30
2007,07,15,11,56,18.20
2007,07,15,11,57,18.30
2007,07,15,11,58,18.30
2007,07,15,11,59,18.30
2007,07,15,12,00,18.30
2007,07,15,12,01,18.30
2007,07,15,12,02,18.40
2007,07,15,12,03,18.50
2007,07,15,12,04,18.50
2007,07,15,12,05,18.40
2007,07,15,12,06,18.50
2007,07,15,12,07,18.60
2007,07,15,12,08,18.70
2007,07,15,12,09,18.70
2007,07,15,12,10,18.70
2007,07,15,12,11,18.70
2007,07,15,12,12,18.80
2007,07,15,12,13,19.00
2007,07,15,12,14,19.20
2007,07,15,12,15,19.30
2007,07,15,12,16,19.60
2007,07,15,12,17,19.80
2007,07,15,12,18,20.00
2007,07,15,12,19,20.20
2007,07,15,12,20,20.40
2007,07,15,12,21,20.60
2007,07,15,12,22,20.80
2007,07,15,12,23,21.00
2007,07,15,12,24,21.30
2007,07,15,12,25,21.60
2007,07,15,12,26,22.00
2007,07,15,12,27,22.40
2007,07,15,12,28,22.70
2007,07,15,12,29,22.90
2007,07,15,12,30,23.00
2007,07,15,12,31,23.20
2007,07,15,12,32,23.30
2007,07,15,12,33,23.40
2007,07,15,12,34,23.40
2007,07,15,12,35,23.50
2007,07,15,12,36,23.60
2007,07,15,12,37,23.60
2007,07,15,12,38,23.70
2007,07,15,12,39,23.70
2007,07,15,12,40,23.60
2007,07,15,12,41,23.60
2007,07,15,12,42,23.60
2007,07,15,12,43,23.60
2007,07,15,12,44,23.60
2007,07,15,12,45,23.60
2007,07,15,12,46,23.50
2007,07,15,12,47,23.50
2007,07,15,12,48,23.50
2007,07,15,12,49,23.40
2007,07,15,12,50,23.30
2007,07,15,12,51,23.20
2007,07,15,12,52,23.20
2007,07,15,12,53,23.20
2007,07,15,12,54,23.20
2007,07,15,12,55,23.20
2007,07,15,12,56,23.20
2007,07,15,12,57,23.20
2007,07,15,12,58,23.20
2007,07,15,12,59,23.20
2007,07,15,13,00,23.20
2007,07,15,13,01,23.20
2007,07,15,13,02,23.30
2007,07,15,13,03,23.30
2007,07,15,13,04,23.40
2007,07,15,13,05,23.40
2007,07,15,13,06,23.50
2007,07,15,13,07,23.60
2007,07,15,13,08,23.60
2007,07,15,13,09,23.60
2007,07,15,13,10,23.70
2007,07,15,13,11,23.70
2007,07,15,13,12,23.70
2007,07,15,13,13,23.70
2007,07,15,13,14,23.60
2007,07,15,13,15,23.50
2007,07,15,13,16,23.40
2007,07,15,13,17,23.30
2007,07,15,13,18,23.30
2007,07,15,13,19,23.40
2007,07,15,13,20,23.40
2007,07,15,13,21,23.40
2007,07,15,13,22,23.40
2007,07,15,13,23,23.40
2007,07,15,13,24,23.40
2007,07,15,13,25,23.40
2007,07,15,13,26,23.40
2007,07,15,13,27,23.50
2007,07,15,13,28,23.50
2007,07,15,13,29,23.50
2007,07,15,13,30,23.60
2007,07,15,13,31,23.60
2007,07,15,13,32,23.60
2007,07,15,13,33,23.70
2007,07,15,13,34,23.80
2007,07,15,13,35,24.00
2007,07,15,13,36,23.90
2007,07,15,13,37,23.90
2007,07,15,13,38,23.80
2007,07,15,13,39,23.80
2007,07,15,13,40,23.80
2007,07,15,13,41,23.80
2007,07,15,13,42,23.80
2007,07,15,13,43,23.80
2007,07,15,13,44,23.80
2007,07,15,13,45,23.90
2007,07,15,13,46,23.90
2007,07,15,13,47,23.90
2007,07,15,13,48,23.90
2007,07,15,13,49,23.90
2007,07,15,13,50,23.90
2007,07,15,13,51,23.90
2007,07,15,13,52,23.90
2007,07,15,13,53,23.90
2007,07,15,13,54,23.80
2007,07,15,13,55,23.90
2007,07,15,13,56,23.90
2007,07,15,13,57,24.00
2007,07,15,13,58,24.20
2007,07,15,13,59,24.30
2007,07,15,14,00,24.40
2007,07,15,14,01,24.40
2007,07,15,14,02,24.40
2007,07,15,14,03,24.30
2007,07,15,14,04,24.20
2007,07,15,14,05,24.20
2007,07,15,14,06,24.20
2007,07,15,14,07,24.20
2007,07,15,14,08,24.20
2007,07,15,14,09,24.20
2007,07,15,14,10,24.30
2007,07,15,14,11,24.30
2007,07,15,14,12,24.20
2007,07,15,14,13,24.10
2007,07,15,14,14,23.90
2007,07,15,14,15,23.90
2007,07,15,14,16,23.80
2007,07,15,14,17,23.70
2007,07,15,14,18,23.60
2007,07,15,14,19,23.40
2007,07,15,14,20,23.40
2007,07,15,14,21,23.30
2007,07,15,14,22,23.20
2007,07,15,14,23,23.10
2007,07,15,14,24,23.10
2007,07,15,14,25,23.10
2007,07,15,14,26,23.00
2007,07,15,14,27,23.00
2007,07,15,14,28,22.90
2007,07,15,14,29,22.90
2007,07,15,14,30,22.90
2007,07,15,14,31,22.80
2007,07,15,14,32,22.80
2007,07,15,14,33,22.80
2007,07,15,14,34,22.80
2007,07,15,14,35,22.80
2007,07,15,14,36,22.70
2007,07,15,14,37,22.70
2007,07,15,14,38,22.60
2007,07,15,14,39,22.60
2007,07,15,14,40,22.60
2007,07,15,14,41,22.60
2007,07,15,14,42,22.60
2007,07,15,14,43,22.60
2007,07,15,14,44,22.60
2007,07,15,14,45,22.60
2007,07,15,14,46,22.60
2007,07,15,14,47,22.60
2007,07,15,14,48,22.70
2007,07,15,14,49,22.70
2007,07,15,14,50,22.60
2007,07,15,14,51,22.60
2007,07,15,14,52,22.60
2007,07,15,14,53,22.60
2007,07,15,14,54,22.60
2007,07,15,14,55,22.50
2007,07,15,14,56,22.50
2007,07,15,14,57,22.40
2007,07,15,14,58,22.40
2007,07,15,14,59,22.50
2007,07,15,15,00,22.50
2007,07,15,15,01,22.60
2007,07,15,15,02,22.60
2007,07,15,15,03,22.60
2007,07,15,15,04,22.60
2007,07,15,15,05,22.50
2007,07,15,15,06,22.50
2007,07,15,15,07,22.60
2007,07,15,15,08,22.60
2007,07,15,15,09,22.60
2007,07,15,15,10,22.60
2007,07,15,15,11,22.60
2007,07,15,15,12,22.60
2007,07,15,15,13,22.60
2007,07,15,15,14,22.50
2007,07,15,15,15,22.50
2007,07,15,15,16,22.40
2007,07,15,15,17,22.50
2007,07,15,15,18,22.50
2007,07,15,15,19,22.50
2007,07,15,15,20,22.60
2007,07,15,15,21,22.60
2007,07,15,15,22,22.60
2007,07,15,15,23,22.50
2007,07,15,15,24,22.50
2007,07,15,15,25,22.50
2007,07,15,15,26,22.50
2007,07,15,15,27,22.50
2007,07,15,15,28,22.50
2007,07,15,15,29,22.60
2007,07,15,15,30,22.60
2007,07,15,15,31,22.60
2007,07,15,15,32,22.70
2007,07,15,15,33,22.70
2007,07,15,15,34,22.70
2007,07,15,15,35,22.70
2007,07,15,15,36,22.70
2007,07,15,15,37,22.70
2007,07,15,15,38,22.70
2007,07,15,15,39,22.60
2007,07,15,15,40,22.60
2007,07,15,15,41,22.60
2007,07,15,15,42,22.60
2007,07,15,15,43,22.60
2007,07,15,15,44,22.60
2007,07,15,15,45,22.60
2007,07,15,15,46,22.70
2007,07,15,15,47,22.70
2007,07,15,15,48,22.80
2007,07,15,15,49,22.90
2007,07,15,15,50,23.00
2007,07,15,15,51,23.00
2007,07,15,15,52,23.00
2007,07,15,15,53,23.00
2007,07,15,15,54,22.90
2007,07,15,15,55,22.90
2007,07,15,15,56,23.00
2007,07,15,15,57,23.00
2007,07,15,15,58,23.10
2007,07,15,15,59,23.20
2007,07,15,16,00,23.30
2007,07,15,16,01,23.40
2007,07,15,16,02,23.40
2007,07,15,16,03,23.50
2007,07,15,16,04,23.70
2007,07,15,16,05,23.80
2007,07,15,16,06,23.90
2007,07,15,16,07,24.10
2007,07,15,16,08,24.20
2007,07,15,16,09,24.30
2007,07,15,16,10,24.30
2007,07,15,16,11,24.30
2007,07,15,16,12,24.30
2007,07,15,16,13,24.30
2007,07,15,16,14,24.30
2007,07,15,16,15,24.30
2007,07,15,16,16,24.30
2007,07,15,16,17,24.30
2007,07,15,16,18,24.20
2007,07,15,16,19,24.20
2007,07,15,16,20,24.20
2007,07,15,16,21,24.20
2007,07,15,16,22,24.20
2007,07,15,16,23,24.20
2007,07,15,16,24,24.20
2007,07,15,16,25,24.20
2007,07,15,16,26,24.20
2007,07,15,16,27,24.20
2007,07,15,16,28,24.30
2007,07,15,16,29,24.40
2007,07,15,16,30,24.40
2007,07,15,16,31,24.40
2007,07,15,16,32,24.30
2007,07,15,16,33,24.20
2007,07,15,16,34,24.10
2007,07,15,16,35,24.20
2007,07,15,16,36,24.20
2007,07,15,16,37,24.20
2007,07,15,16,38,24.20
2007,07,15,16,39,24.20
2007,07,15,16,40,24.30
2007,07,15,16,41,24.40
2007,07,15,16,42,24.50
2007,07,15,16,43,24.60
2007,07,15,16,44,24.60
2007,07,15,16,45,24.60
2007,07,15,16,46,24.60
2007,07,15,16,47,24.50
2007,07,15,16,48,24.50
2007,07,15,16,49,24.60
2007,07,15,16,50,24.60
2007,07,15,16,51,24.70
2007,07,15,16,52,24.60
2007,07,15,16,53,24.60
2007,07,15,16,54,24.60
2007,07,15,16,55,24.60
2007,07,15,16,56,24.50
2007,07,15,16,57,24.50
2007,07,15,16,58,24.50
2007,07,15,16,59,24.60
2007,07,15,17,00,24.60
2007,07,15,17,01,24.60
2007,07,15,17,02,24.70
2007,07,15,17,03,24.80
2007,07,15,17,04,24.80
2007,07,15,17,05,24.80
2007,07,15,17,06,24.80
2007,07,15,17,07,24.80
2007,07,15,17,08,24.70
2007,07,15,17,09,24.70
2007,07,15,17,10,24.70
2007,07,15,17,11,24.60
2007,07,15,17,12,24.40
2007,07,15,17,13,24.30
2007,07,15,17,14,24.20
2007,07,15,17,15,24.20
2007,07,15,17,16,24.10
2007,07,15,17,17,24.10
2007,07,15,17,18,24.20
2007,07,15,17,19,24.20